Copper Mountain, CO

4:51 AM MST on December 13, 2017 (GMT -0700)
Copper Mountain

Weather History for KCCU - November, 2013

Change the Weather History Date:

Sunday, November 24, 2013

  Actual Average Record
Temperature  
Mean Temperature 26 °F -  
Max Temperature 30 °F - 41 °F (2011)
Min Temperature 23 °F - 5 °F (2001)
Degree Days  
Heating Degree Days 38    
Month to date heating degree days  
Cooling Degree Days 0    
Month to date cooling degree days  
Moisture  
Dew Point 20 °F    
Average Humidity 77    
Maximum Humidity 80    
Minimum Humidity 64    
Precipitation  
Precipitation 0.00 in - 0.06 in (2002)
Sea Level Pressure  
Sea Level Pressure 30.10 in    
Wind  
Wind Speed 13 mph (West)    
Max Wind Speed 23 mph    
Max Gust Speed 26 mph    
Visibility 4 miles    
Events Snow    
T = Trace of Precipitation, MM = Missing Value Source: NWS Daily Summary

Daily Weather History Graph

Daily Weather History Graph

Search for Another Location

Airport or City:

Trip Planner

Search our weather history database for the weather conditions in past years. The results will help you decide how hot, cold, wet, or windy it might be!

Date:

Astronomy

Nov. 24, 2013 Rise Set
Actual Time 6:58 AM MST 4:43 PM MST
Civil Twilight 6:29 AM MST 5:13 PM MST
Nautical Twilight 5:56 AM MST 5:46 PM MST
Astronomical Twilight 5:24 AM MST 6:18 PM MST
Moon 11:11 PM MST (11/24) 11:48 AM MST (11/24)
Length of Visible Light 10h 43m
Length of Day
9h 44m
Waning Gibbous, 60% of the Moon is Illuminated
Nov 24
Waning Gibbous
Nov 25
Last Quarter
Dec 2
New
Dec 9
First Quarter
Dec 17
Full

Hourly Weather History & Observations

Time (MST) Temp. Windchill Dew Point Humidity Pressure Visibility Wind Dir Wind Speed Gust Speed Precip Events Conditions
12:15 AM 28.4 °F 20.4 °F 21.2 °F 74% 30.23 in 10.0 mi South 8.1 mph - N/A   Mostly Cloudy
12:35 AM 28.4 °F 19.7 °F 21.2 °F 74% 30.22 in 10.0 mi SSE 9.2 mph 17.3 mph N/A   Mostly Cloudy
12:55 AM 28.4 °F 23.3 °F 21.2 °F 74% 30.22 in 10.0 mi South 4.6 mph - N/A   Overcast
1:15 AM 30.2 °F 19.8 °F 21.2 °F 69% 30.21 in 10.0 mi South 13.8 mph - N/A   Overcast
1:35 AM 28.4 °F 18.0 °F 19.4 °F 69% 30.21 in 10.0 mi South 12.7 mph - N/A   Overcast
1:55 AM 28.4 °F 16.2 °F 19.4 °F 69% 30.21 in 10.0 mi South 17.3 mph - N/A   Scattered Clouds
2:15 AM 28.4 °F 14.4 °F 19.4 °F 69% 30.20 in 10.0 mi South 23.0 mph - N/A   Scattered Clouds
2:35 AM 28.4 °F 14.7 °F 19.4 °F 69% 30.19 in 10.0 mi South 21.9 mph - N/A   Scattered Clouds
2:55 AM 28.4 °F 16.6 °F 19.4 °F 69% 30.20 in 10.0 mi South 16.1 mph - N/A   Clear
3:15 AM 28.4 °F 15.8 °F 19.4 °F 69% 30.19 in 10.0 mi South 18.4 mph - N/A   Clear
3:35 AM 28.4 °F 18.0 °F 19.4 °F 69% 30.18 in 10.0 mi South 12.7 mph - N/A   Scattered Clouds
3:55 AM 28.4 °F 18.5 °F 19.4 °F 69% 30.17 in 10.0 mi South 11.5 mph - N/A   Clear
4:15 AM 28.4 °F 18.0 °F 19.4 °F 69% 30.17 in 10.0 mi South 12.7 mph - N/A   Clear
4:35 AM 28.4 °F 17.5 °F 19.4 °F 69% 30.17 in 10.0 mi South 13.8 mph - N/A   Clear
4:55 AM 28.4 °F 18.5 °F 19.4 °F 69% 30.17 in 10.0 mi South 11.5 mph - N/A   Scattered Clouds
5:15 AM 28.4 °F 18.0 °F 17.6 °F 64% 30.17 in 10.0 mi West 12.7 mph - N/A   Mostly Cloudy
5:35 AM 28.4 °F 19.1 °F 17.6 °F 64% 30.18 in 10.0 mi South 10.4 mph - N/A   Mostly Cloudy
5:55 AM 28.4 °F 16.6 °F 17.6 °F 64% 30.16 in 10.0 mi West 16.1 mph - N/A   Overcast
6:15 AM 28.4 °F 20.4 °F 19.4 °F 69% 30.16 in 10.0 mi WSW 8.1 mph - N/A   Overcast
6:35 AM 28.4 °F 20.4 °F 19.4 °F 69% 30.15 in 10.0 mi West 8.1 mph 13.8 mph N/A   Mostly Cloudy
6:55 AM 26.6 °F 17.5 °F 19.4 °F 74% 30.15 in 10.0 mi West 9.2 mph - N/A   Scattered Clouds
7:15 AM 26.6 °F 15.2 °F 19.4 °F 74% 30.15 in 10.0 mi West 13.8 mph - N/A   Mostly Cloudy
7:35 AM 26.6 °F 15.7 °F 21.2 °F 80% 30.15 in 10.0 mi West 12.7 mph - N/A   Overcast
7:55 AM 26.6 °F 15.2 °F 21.2 °F 80% 30.15 in 10.0 mi West 13.8 mph - N/A   Overcast
8:15 AM 26.6 °F 15.2 °F 21.2 °F 80% 30.15 in 10.0 mi West 13.8 mph - N/A   Overcast
8:35 AM 26.6 °F 15.2 °F 21.2 °F 80% 30.15 in 10.0 mi West 13.8 mph - N/A   Overcast
8:55 AM 26.6 °F - 21.2 °F 80% 30.14 in 5.0 mi North - - N/A   Haze
9:15 AM 26.6 °F 16.2 °F 21.2 °F 80% 30.15 in 3.0 mi West 11.5 mph - N/A   Haze
9:35 AM 26.6 °F 16.8 °F 21.2 °F 80% 30.14 in 2.0 mi West 10.4 mph - N/A   Haze
9:55 AM 26.6 °F 16.8 °F 21.2 °F 80% 30.13 in 4.0 mi West 10.4 mph - N/A   Haze
10:15 AM 26.6 °F 16.2 °F 21.2 °F 80% 30.13 in 2.0 mi West 11.5 mph - N/A   Haze
10:35 AM 28.4 °F 19.7 °F 23.0 °F 80% 30.12 in 1.0 mi West 9.2 mph - N/A   Haze
10:55 AM 26.6 °F 17.5 °F 21.2 °F 80% 30.12 in 1.5 mi West 9.2 mph - N/A   Haze
11:15 AM 26.6 °F 17.5 °F 21.2 °F 80% 30.10 in 0.2 mi West 9.2 mph - N/A   Haze
11:35 AM 26.6 °F 19.1 °F 21.2 °F 80% 30.09 in 0.2 mi West 6.9 mph 16.1 mph N/A Snow Light Snow
11:55 AM 28.4 °F 20.4 °F 23.0 °F 80% 30.08 in 0.2 mi West 8.1 mph - N/A Snow Light Snow
12:15 PM 26.6 °F 17.5 °F 21.2 °F 80% 30.07 in 0.2 mi West 9.2 mph - N/A   Haze
12:35 PM 26.6 °F 16.8 °F 21.2 °F 80% 30.07 in 0.2 mi West 10.4 mph - N/A Snow Light Snow
12:55 PM 26.6 °F 15.2 °F 21.2 °F 80% 30.06 in 0.2 mi West 13.8 mph - N/A Snow Light Snow
1:15 PM 26.6 °F 15.2 °F 21.2 °F 80% 30.05 in 0.2 mi West 13.8 mph - N/A Snow Light Snow
1:35 PM 26.6 °F 15.7 °F 21.2 °F 80% 30.05 in 0.2 mi West 12.7 mph - N/A Snow Light Snow
1:55 PM 26.6 °F 15.7 °F 21.2 °F 80% 30.05 in 0.2 mi West 12.7 mph - N/A Snow Snow
2:15 PM 26.6 °F 14.7 °F 21.2 °F 80% 30.04 in 0.2 mi West 15.0 mph - N/A Snow Light Snow
2:35 PM 26.6 °F 17.5 °F 21.2 °F 80% 30.03 in 0.2 mi West 9.2 mph - N/A Snow Light Snow
2:55 PM 26.6 °F 15.2 °F 21.2 °F 80% 30.03 in 0.2 mi West 13.8 mph - N/A Snow Snow
3:15 PM 26.6 °F 15.7 °F 21.2 °F 80% 30.04 in 0.2 mi West 12.7 mph - N/A Snow Snow
3:35 PM 26.6 °F 13.8 °F 21.2 °F 80% 30.03 in 0.2 mi West 17.3 mph - N/A Snow Light Snow
3:55 PM 26.6 °F 14.3 °F 21.2 °F 80% 30.02 in 0.2 mi West 16.1 mph - N/A Snow Snow
4:15 PM 26.6 °F 13.8 °F 21.2 °F 80% 30.02 in 0.2 mi West 17.3 mph - N/A Snow Light Snow
4:35 PM 26.6 °F 14.3 °F 19.4 °F 74% 30.02 in 0.2 mi West 16.1 mph - N/A Snow Snow
4:55 PM 24.8 °F 10.7 °F 19.4 °F 80% 30.01 in 0.2 mi West 19.6 mph - N/A Snow Snow
5:15 PM 24.8 °F 11.5 °F 19.4 °F 80% 30.01 in 0.2 mi West 17.3 mph - N/A Snow Light Snow
5:35 PM 24.8 °F 10.7 °F 19.4 °F 80% 30.01 in 0.2 mi West 19.6 mph - N/A Snow Snow
5:55 PM 24.8 °F - 19.4 °F 80% 30.01 in 0.2 mi North - - N/A Snow Snow
6:15 PM 24.8 °F 10.7 °F 19.4 °F 80% 30.01 in 0.2 mi West 19.6 mph - N/A Snow Snow
6:35 PM 24.8 °F 10.3 °F 19.4 °F 80% 30.01 in 0.2 mi West 20.7 mph 25.3 mph N/A Snow Snow
6:55 PM 24.8 °F 10.7 °F 19.4 °F 80% 30.02 in 0.2 mi West 19.6 mph - N/A Snow Snow
7:15 PM 24.8 °F 11.9 °F 19.4 °F 80% 30.02 in 0.2 mi West 16.1 mph - N/A Snow Snow
7:35 PM 24.8 °F 11.1 °F 19.4 °F 80% 30.02 in 0.2 mi West 18.4 mph 23.0 mph N/A Snow Snow
7:55 PM 24.8 °F 12.4 °F 19.4 °F 80% 30.02 in 0.2 mi WNW 15.0 mph 21.9 mph N/A Snow Light Snow
8:15 PM 24.8 °F 10.7 °F 19.4 °F 80% 30.02 in 0.2 mi WNW 19.6 mph - N/A Snow Light Snow
8:35 PM 24.8 °F 11.1 °F 19.4 °F 80% 30.02 in 0.2 mi WNW 18.4 mph 25.3 mph N/A Snow Light Snow
8:55 PM 24.8 °F 14.6 °F 19.4 °F 80% 30.02 in 0.5 mi West 10.4 mph - N/A   Haze
9:15 PM 24.8 °F 15.3 °F 19.4 °F 80% 30.02 in 0.2 mi WNW 9.2 mph 16.1 mph N/A Snow Light Snow
9:35 PM 24.8 °F 12.4 °F 19.4 °F 80% 30.03 in 0.2 mi West 15.0 mph 19.6 mph N/A Snow Light Snow
9:55 PM 24.8 °F 14.0 °F 19.4 °F 80% 30.03 in 0.2 mi West 11.5 mph - N/A   Haze
10:15 PM 24.8 °F 16.9 °F 19.4 °F 80% 30.03 in 0.2 mi West 6.9 mph - N/A   Haze
10:35 PM 24.8 °F 12.9 °F 19.4 °F 80% 30.03 in 0.2 mi WNW 13.8 mph 21.9 mph N/A Snow Light Snow
10:55 PM 23.0 °F 8.7 °F 17.6 °F 80% 30.03 in 0.2 mi WNW 18.4 mph - N/A Snow Light Snow
11:15 PM 23.0 °F 10.1 °F 17.6 °F 80% 30.04 in 0.2 mi WNW 15.0 mph 21.9 mph N/A   Haze
11:26 PM 23.0 °F 11.7 °F 17.6 °F 80% 30.03 in 0.2 mi WNW 11.5 mph 19.6 mph N/A   Haze
11:55 PM 23.0 °F 8.7 °F 17.6 °F 80% 30.03 in 7.0 mi WNW 18.4 mph 26.5 mph N/A   Overcast